Ozark, AL

2:05 AM CDT on May 25, 2017 (GMT -0500)
Cairns Army Air Field

Weather History for KOZR - March, 2013

Change the Weather History Date:

Saturday, March 23, 2013

  Actual Average Record
Temperature  
Mean Temperature 56 °F -  
Max Temperature 63 °F 69 °F 83 °F (2011)
Min Temperature 50 °F 46 °F 30 °F (2002)
Degree Days  
Heating Degree Days 8    
Growing Degree Days 6 (Base 50)    
Moisture  
Dew Point 52 °F    
Average Humidity 86    
Maximum Humidity 100    
Minimum Humidity 67    
Precipitation  
Precipitation 0.20 in - - ()
Sea Level Pressure  
Sea Level Pressure 29.81 in    
Wind  
Wind Speed 7 mph (ENE)    
Max Wind Speed 15 mph    
Max Gust Speed -    
Visibility 10 miles    
Events Rain , Thunderstorm    
Averages and records for this station are not official NWS values.
T = Trace of Precipitation, MM = Missing Value Source: NWS Daily Summary

Daily Weather History Graph

Daily Weather History Graph

Search for Another Location

Airport or City:

Trip Planner

Search our weather history database for the weather conditions in past years. The results will help you decide how hot, cold, wet, or windy it might be!

Date:

Astronomy

Mar. 23, 2013 Rise Set
Actual Time 6:42 AM CDT 6:56 PM CDT
Civil Twilight 6:18 AM CDT 7:20 PM CDT
Nautical Twilight 5:50 AM CDT 7:49 PM CDT
Astronomical Twilight 5:21 AM CDT 8:17 PM CDT
Moon 3:34 PM CDT (3/23) 4:05 AM CDT (3/23)
Length of Visible Light 13h 02m
Length of Day
12h 13m
Waxing Gibbous, 85% of the Moon is Illuminated
Mar 23
Waxing Gibbous
Mar 27
Full
Apr 2
Last Quarter
Apr 10
New
Apr 18
First Quarter

Hourly Weather History & Observations

Time (CDT) Temp. Dew Point Humidity Pressure Visibility Wind Dir Wind Speed Gust Speed Precip Events Conditions
12:58 AM 50.7 °F 43.0 °F 75% 29.94 in 10.0 mi NE 6.9 mph - N/A   Overcast
1:58 AM 51.3 °F 43.5 °F 75% 29.94 in 10.0 mi ENE 3.5 mph - N/A   Overcast
2:58 AM 52.0 °F 43.7 °F 73% 29.92 in 10.0 mi East 5.8 mph - N/A   Overcast
3:23 AM 51.8 °F 44.6 °F 76% 29.90 in 10.0 mi NE 4.6 mph - N/A   Overcast
3:34 AM 51.8 °F 44.6 °F 76% 29.89 in 10.0 mi ENE 8.1 mph - N/A Rain Light Rain
3:43 AM 51.8 °F 44.6 °F 76% 29.88 in 10.0 mi ENE 5.8 mph - N/A   Overcast
3:48 AM 51.8 °F 44.6 °F 76% 29.88 in 10.0 mi East 6.9 mph - N/A   Overcast
3:58 AM 51.6 °F 44.2 °F 76% 29.88 in 10.0 mi ENE 5.8 mph - 0.00 in   Overcast
4:18 AM 51.8 °F 44.6 °F 76% 29.87 in 10.0 mi ENE 6.9 mph - N/A   Overcast
4:58 AM 52.5 °F 43.7 °F 72% 29.87 in 10.0 mi ENE 6.9 mph - N/A   Overcast
5:13 AM 51.8 °F 44.6 °F 76% 29.86 in 10.0 mi East 6.9 mph - N/A   Overcast
5:43 AM 53.6 °F 44.6 °F 72% 29.87 in 10.0 mi East 3.5 mph - N/A   Mostly Cloudy
5:48 AM 53.6 °F 42.8 °F 67% 29.87 in 10.0 mi East 4.6 mph - N/A   Mostly Cloudy
5:58 AM 53.4 °F 43.7 °F 70% 29.89 in 10.0 mi ESE 3.5 mph - N/A   Overcast
6:53 AM 53.6 °F 44.6 °F 72% 29.87 in 10.0 mi East 3.5 mph - N/A   Overcast
6:58 AM 54.0 °F 44.6 °F 71% 29.88 in 10.0 mi East 3.5 mph - N/A   Overcast
7:48 AM 55.4 °F 46.4 °F 72% 29.88 in 10.0 mi East 3.5 mph - N/A   Overcast
7:58 AM 55.8 °F 46.4 °F 71% 29.88 in 10.0 mi East 3.5 mph - N/A   Overcast
8:58 AM 57.4 °F 48.2 °F 71% 29.90 in 10.0 mi NE 2.3 mph - N/A   Overcast
9:07 AM 57.2 °F 48.2 °F 72% 29.89 in 10.0 mi NNE 4.6 mph - N/A Rain Light Rain
9:19 AM 57.2 °F 50.0 °F 77% 29.89 in 10.0 mi NE 5.8 mph - N/A   Overcast
9:58 AM 59.4 °F 50.9 °F 74% 29.90 in 10.0 mi ENE 4.6 mph - 0.00 in   Overcast
10:58 AM 63.0 °F 53.2 °F 71% 29.90 in 10.0 mi ENE 5.8 mph - N/A   Overcast
11:58 AM 63.9 °F 54.3 °F 71% 29.88 in 10.0 mi NE 9.2 mph - N/A   Overcast
12:58 PM 62.2 °F 54.7 °F 76% 29.87 in 10.0 mi NE 9.2 mph - N/A   Overcast
1:13 PM 62.6 °F 55.4 °F 77% 29.85 in 10.0 mi ENE 5.8 mph - N/A   Overcast
1:16 PM 62.6 °F 55.4 °F 77% 29.85 in 10.0 mi ENE 8.1 mph - N/A Rain Light Rain
1:38 PM 60.8 °F 55.4 °F 82% 29.82 in 10.0 mi NE 8.1 mph - N/A   Overcast
1:58 PM 59.7 °F 55.0 °F 84% 29.83 in 10.0 mi ENE 8.1 mph - 0.00 in   Overcast
2:58 PM 59.0 °F 54.9 °F 86% 29.82 in 10.0 mi East 9.2 mph - N/A   Overcast
3:03 PM 59.0 °F 55.4 °F 88% 29.80 in 10.0 mi NE 11.5 mph - N/A   Overcast
3:25 PM 57.2 °F 53.6 °F 88% 29.81 in 10.0 mi NE 11.5 mph - N/A Rain , Thunderstorm Light Rain
3:29 PM 57.2 °F 53.6 °F 88% 29.81 in 10.0 mi ENE 9.2 mph - N/A Rain , Thunderstorm Light Thunderstorms and Rain
3:56 PM 57.2 °F 55.4 °F 94% 29.77 in 10.0 mi NE 15.0 mph - N/A Rain Light Rain
3:58 PM 57.2 °F 55.4 °F 94% 29.78 in 10.0 mi NE 15.0 mph - 0.01 in Rain Light Rain
4:01 PM 57.2 °F 55.4 °F 94% 29.76 in 10.0 mi ENE 15.0 mph - N/A   Overcast
4:06 PM 57.2 °F 55.4 °F 94% 29.77 in 10.0 mi ENE 10.4 mph - N/A   Overcast
4:11 PM 57.2 °F 55.4 °F 94% 29.77 in 10.0 mi NE 12.7 mph - N/A   Overcast
4:31 PM 57.2 °F 55.4 °F 94% 29.76 in 10.0 mi East 10.4 mph - N/A   Overcast
4:56 PM 57.2 °F 55.4 °F 94% 29.79 in 10.0 mi ENE 4.6 mph - N/A   Overcast
4:58 PM 57.2 °F 55.4 °F 94% 29.80 in 10.0 mi NE 5.8 mph - 0.00 in   Overcast
5:04 PM 57.2 °F 55.4 °F 94% 29.79 in 10.0 mi NE 9.2 mph - N/A Rain Light Rain
5:38 PM 57.2 °F 55.4 °F 94% 29.78 in 10.0 mi ESE 10.4 mph - N/A   Overcast
5:58 PM 57.2 °F 55.4 °F 94% 29.80 in 10.0 mi ENE 4.6 mph - 0.02 in   Overcast
6:08 PM 55.4 °F 55.4 °F 100% 29.76 in 10.0 mi ENE 10.4 mph - N/A   Overcast
6:09 PM 55.4 °F 55.4 °F 100% 29.76 in 10.0 mi ENE 10.4 mph - N/A Rain Light Rain
6:14 PM 55.4 °F 53.6 °F 94% 29.75 in 10.0 mi East 11.5 mph - N/A Rain Light Rain
6:29 PM 55.4 °F 53.6 °F 94% 29.74 in 2.5 mi East 11.5 mph - N/A Rain Heavy Rain
6:34 PM 55.4 °F 53.6 °F 94% 29.75 in 3.0 mi ESE 6.9 mph - N/A Rain Light Rain
6:42 PM 55.4 °F 53.6 °F 94% 29.74 in 8.0 mi East 10.4 mph - N/A Rain Light Rain
6:57 PM 55.4 °F 53.6 °F 94% 29.76 in 10.0 mi NE 4.6 mph - N/A   Overcast
6:58 PM 55.4 °F 53.6 °F 94% 29.77 in 10.0 mi NE 5.8 mph - 0.09 in   Overcast
7:05 PM 55.4 °F 53.6 °F 94% 29.79 in 10.0 mi NNW 11.5 mph - N/A Rain Light Rain
7:21 PM 55.4 °F 53.6 °F 94% 29.76 in 10.0 mi East 10.4 mph - N/A   Overcast
7:26 PM 55.4 °F 53.6 °F 94% 29.76 in 10.0 mi East 9.2 mph - N/A   Overcast
7:29 PM 55.4 °F 53.6 °F 94% 29.75 in 9.0 mi East 9.2 mph - N/A Rain Light Rain
7:30 PM 55.4 °F 53.6 °F 94% 29.75 in 9.0 mi East 9.2 mph - N/A Rain Light Rain
7:49 PM 55.4 °F 53.6 °F 94% 29.74 in 10.0 mi East 8.1 mph - N/A   Overcast
7:58 PM 55.0 °F 54.0 °F 96% 29.76 in 10.0 mi East 5.8 mph - 0.02 in   Overcast
7:59 PM 55.4 °F 53.6 °F 94% 29.75 in 10.0 mi East 6.9 mph - N/A   Light Drizzle
8:13 PM 55.4 °F 53.6 °F 94% 29.74 in 10.0 mi ENE 9.2 mph - N/A   Overcast
8:23 PM 55.4 °F 53.6 °F 94% 29.74 in 10.0 mi East 9.2 mph - N/A   Overcast
8:30 PM 55.4 °F 53.6 °F 94% 29.74 in 10.0 mi East 8.1 mph - N/A Rain , Thunderstorm Light Rain
8:52 PM 55.4 °F 53.6 °F 94% 29.72 in 7.0 mi ENE 10.4 mph - N/A   Overcast
8:58 PM 54.7 °F 53.8 °F 97% 29.73 in 8.0 mi ENE 10.4 mph - 0.02 in   Overcast
9:58 PM 55.0 °F 54.1 °F 97% 29.72 in 8.0 mi East 10.4 mph - N/A   Overcast
10:33 PM 55.4 °F 55.4 °F 100% 29.70 in 10.0 mi East 6.9 mph - N/A   Overcast
10:58 PM 55.4 °F 54.5 °F 97% 29.68 in 9.0 mi East 9.2 mph - N/A   Overcast
11:13 PM 55.4 °F 55.4 °F 100% 29.66 in 7.0 mi East 9.2 mph - N/A Rain Light Rain
11:58 PM 56.5 °F 55.9 °F 98% 29.67 in 6.0 mi ESE 6.9 mph - 0.04 in Rain Light Rain